Bei Facebook empfehlenBei Twitter postenGoogle plusPinterest

Das Wetter im Erzgebirge am 23.01.2017

Wetter und Klima am 23.01.2017 Holzhau im Erzgebirge (630m ü.NN)
Letzte gemessene Temperatur und Uhrzeit der Messung23:45:00 Uhr-12.20 °C
Temperatur (Maximum / Höchstwert) und Uhrzeit der Messung13:45:00 Uhr3.30 °C
Temperatur (Minimum / Tiefstwert) und Uhrzeit der Messung22:00:00-13.40 °C
Errechneter Absolutwert der Temperaturschwankungen zwischen Tmin und Tmax des Tages16.70 K
Errechnete Tagesmitteltemperatur-6.34063 °C
Gesamt - Niederschlag des Tages (in flüssiger Form)0.00 Liter / m²
Luftdruck (Maximum / Höchstwert) und Zeitpunkt der Messung02:15:00 Uhr1019.60 hPa
Luftdruck (Minimum / Tiefstwert) und Zeitpunkt der Messung20:00:00 Uhr1017.20 hPa
Errechneter Absolutwert der Luftdruckschwankungen des Tages2.40 hPa
Höchste gemessene Windgeschwindigkeit und Uhrzeit der Messung00:45:00 Uhr16.56 km/h
Errechnete Windhäufigkeit in Relation zu den Messwerten des Tages19.79167 %
Niedrigste Windkühle (Windchill) und Zeitpunkt der Messung22:00:00 Uhr-13.40 °C
Taupunkt (Maximum / Höchstwert) und Uhrzeit der Messung13:15:00 Uhr-3.00 °C
Taupunkt (Minimum / Tiefstwert) und Uhrzeit der Messung22:00:00-15.50 °C
Anzahl der automatisch eingelesenen Messwerte 96

Detaillierte Wetter- und Klima- Messwerte für den 23.01.2017 in Holzhau im Erzgebirge (630m ü.NN)
ZeitTemperaturLuftdruckRel. LuftfeuchteWindWindrichtungWindchillTaupunktNiederschlag l/m²
23:45:00-12.20 °C1017.90 hPa86.00 %-14.30 °C 
23:30:00-12.40 °C1018.00 hPa87.00 %-14.30 °C 
23:15:00-12.60 °C1018.00 hPa86.00 %-14.70 °C 
23:00:00-12.70 °C1018.10 hPa86.00 %-14.80 °C 
22:45:00-13.00 °C1018.10 hPa86.00 %-15.10 °C 
22:30:00-13.10 °C1018.00 hPa86.00 %-15.20 °C 
22:15:00-13.20 °C1018.00 hPa86.00 %-15.30 °C 
22:00:00-13.40 °C1018.20 hPa86.00 %-15.50 °C 
21:45:00-13.30 °C1018.00 hPa86.00 %-15.40 °C 
21:30:00-13.10 °C1018.10 hPa85.00 %-15.30 °C 
21:15:00-12.90 °C1017.80 hPa85.00 %-15.10 °C 
21:00:00-12.50 °C1017.80 hPa84.00 %-14.90 °C 
20:45:00-12.20 °C1017.60 hPa85.00 %-14.50 °C 
20:30:00-11.80 °C1017.50 hPa84.00 %-14.20 °C 
20:15:00-11.50 °C1017.40 hPa84.00 %-13.90 °C 
20:00:00-11.20 °C1017.20 hPa85.00 %1.44 km/hS-11.20 °C-13.50 °C 
19:45:00-11.10 °C1017.40 hPa83.00 %-13.70 °C 
19:30:00-10.70 °C1017.50 hPa83.00 %-13.30 °C 
19:15:00-10.40 °C1017.50 hPa83.00 %1.44 km/hS-10.40 °C-13.00 °C 
19:00:00-10.20 °C1017.50 hPa82.00 %-13.00 °C 
18:45:00-9.70 °C1017.60 hPa82.00 %-12.50 °C 
18:30:00-9.50 °C1017.70 hPa81.00 %-12.50 °C 
18:15:00-9.10 °C1017.60 hPa81.00 %-12.10 °C 
18:00:00-9.00 °C1017.90 hPa80.00 %-12.20 °C 
17:45:00-8.70 °C1017.80 hPa78.00 %1.08 km/hS-8.70 °C-12.20 °C 
17:30:00-8.40 °C1017.90 hPa74.00 %-12.70 °C 
17:15:00-7.60 °C1017.70 hPa73.00 %-12.10 °C 
17:00:00-6.60 °C1017.60 hPa71.00 %-11.50 °C 
16:45:00-5.70 °C1017.60 hPa70.00 %-10.80 °C 
16:30:00-4.80 °C1017.70 hPa69.00 %-10.20 °C 
16:15:00-4.10 °C1017.50 hPa67.00 %-9.90 °C 
16:00:00-3.10 °C1017.80 hPa65.00 %-9.40 °C 
15:45:00-1.60 °C1017.80 hPa63.00 %-8.40 °C 
15:30:00-0.80 °C1017.90 hPa62.00 %-7.90 °C 
15:15:00-0.20 °C1017.90 hPa61.00 %-7.60 °C 
15:00:000.70 °C1017.90 hPa59.00 %-6.40 °C 
14:45:001.50 °C1017.70 hPa59.00 %-5.60 °C 
14:30:001.90 °C1017.80 hPa59.00 %-5.20 °C 
14:15:002.90 °C1017.70 hPa59.00 %-4.30 °C 
14:00:003.20 °C1017.60 hPa59.00 %-4.00 °C 
13:45:003.30 °C1017.50 hPa61.00 %-3.50 °C 
13:30:003.10 °C1017.60 hPa62.00 %-3.50 °C 
13:15:003.10 °C1017.90 hPa64.00 %-3.00 °C 
13:00:002.70 °C1017.90 hPa65.00 %-3.20 °C 
12:45:002.50 °C1018.00 hPa67.00 %-3.00 °C 
12:30:001.80 °C1018.30 hPa69.00 %-3.30 °C 
12:15:001.20 °C1018.00 hPa71.00 %-3.50 °C 
12:00:000.60 °C1018.10 hPa72.00 %-3.90 °C 
11:45:000.10 °C1018.00 hPa74.00 %-4.00 °C 
11:30:00-0.70 °C1018.30 hPa75.00 %-5.00 °C 
11:15:00-1.60 °C1018.30 hPa77.00 %-5.50 °C 
11:00:00-2.40 °C1018.40 hPa78.00 %1.44 km/hS-2.40 °C-6.10 °C 
10:45:00-3.10 °C1018.40 hPa79.00 %-6.60 °C 
10:30:00-3.80 °C1018.70 hPa81.00 %2.88 km/hS-3.80 °C-6.90 °C 
10:15:00-4.70 °C1018.70 hPa83.00 %1.44 km/hS-4.70 °C-7.40 °C 
10:00:00-5.70 °C1018.90 hPa85.00 %1.80 km/hS-5.70 °C-8.10 °C 
09:45:00-6.70 °C1018.80 hPa86.00 %1.08 km/hS-6.70 °C-8.90 °C 
09:30:00-7.20 °C1018.90 hPa85.00 %-9.50 °C 
09:15:00-7.30 °C1018.90 hPa86.00 %-9.50 °C 
09:00:00-7.50 °C1018.70 hPa87.00 %-9.50 °C 
08:45:00-7.70 °C1018.70 hPa86.00 %2.16 km/hSSO-7.70 °C-9.90 °C 
08:30:00-7.90 °C1018.70 hPa86.00 %-10.10 °C 
08:15:00-8.10 °C1018.70 hPa86.00 %2.88 km/hS-8.10 °C-10.30 °C 
08:00:00-8.10 °C1018.70 hPa86.00 %-10.30 °C 
07:45:00-7.90 °C1018.50 hPa86.00 %2.52 km/hSSO-7.90 °C-10.10 °C 
07:30:00-7.70 °C1018.70 hPa85.00 %-10.00 °C 
07:15:00-7.50 °C1018.70 hPa85.00 %-9.80 °C 
07:00:00-7.60 °C1018.70 hPa85.00 %-9.90 °C 
06:45:00-7.60 °C1018.70 hPa85.00 %4.32 km/hSSO-7.60 °C-9.90 °C 
06:30:00-7.60 °C1018.60 hPa85.00 %-9.90 °C 
06:15:00-7.60 °C1018.70 hPa85.00 %-9.90 °C 
06:00:00-7.50 °C1018.60 hPa84.00 %-10.00 °C 
05:45:00-7.40 °C1018.70 hPa84.00 %-9.90 °C 
05:30:00-7.10 °C1018.70 hPa84.00 %1.44 km/hS-7.10 °C-9.60 °C 
05:15:00-7.10 °C1018.70 hPa84.00 %-9.60 °C 
05:00:00-7.10 °C1018.80 hPa83.00 %-9.80 °C 
04:45:00-7.10 °C1018.80 hPa83.00 %-9.80 °C 
04:30:00-7.10 °C1018.90 hPa83.00 %-9.80 °C 
04:15:00-6.90 °C1018.90 hPa83.00 %-9.60 °C 
04:00:00-7.00 °C1019.00 hPa83.00 %-9.70 °C 
03:45:00-7.10 °C1019.10 hPa83.00 %-9.80 °C 
03:30:00-6.90 °C1019.20 hPa82.00 %-9.80 °C 
03:15:00-6.90 °C1019.20 hPa82.00 %-9.80 °C 
03:00:00-7.00 °C1019.40 hPa82.00 %-9.90 °C 
02:45:00-7.00 °C1019.40 hPa82.00 %-9.90 °C 
02:30:00-7.10 °C1019.50 hPa82.00 %-10.00 °C 
02:15:00-6.80 °C1019.60 hPa81.00 %-9.80 °C 
02:00:00-6.90 °C1019.50 hPa81.00 %9.00 km/hSO-11.20 °C-9.90 °C 
01:45:00-6.80 °C1019.50 hPa81.00 %4.32 km/hSO-6.80 °C-9.80 °C 
01:30:00-6.70 °C1019.50 hPa81.00 %6.48 km/hSSO-10.00 °C-9.70 °C 
01:15:00-6.20 °C1019.60 hPa80.00 %-9.40 °C 
01:00:00-5.90 °C1019.50 hPa80.00 %-9.10 °C 
00:45:00-6.10 °C1019.50 hPa80.00 %16.56 km/hS-12.30 °C-9.30 °C 
00:30:00-5.80 °C1019.50 hPa79.00 %1.08 km/hS-5.80 °C-9.20 °C 
00:15:00-5.70 °C1019.50 hPa80.00 %-8.90 °C 
00:00:00-5.70 °C1019.60 hPa79.00 %8.28 km/hS-9.50 °C-9.10 °C 

Permanenter Link zu dieser Seite: Wetter im Erzgebirge am 23.01.2017
Performance-Info: Die Erstellung der Seite / Statistik(en) / Tabelle(n) erforderte 5 Datenbankserver-Abfrage(n) und dauerte 124 Millisekunden. (Dieser Messwert ist von der Gesamt-Auslastung des Servers abhängig.)
Erzgebirge - Wetter | Erzgebirge - Wetter (Mobilgeräte) | Komplette Klimadatenbank